THORAD DELTA 1 DEB, 10990

Orbit data source: Space-Track

THORAD DELTA 1 DEB, 10990 is space debris in SSO originally from a launch on Fri, 15 Nov 1974 UTC launched from the Air Force Western Test Range (AFWTR). Debris objects in space refer to the collection of defunct objects orbiting the Earth. Examples of debris include non-operational satellites, rocket bodies, and fragments generated from explosions, collisions, or faulty payload assembly.

Loading next visibility...
Identifier
10990, 1974-089EK
Orbit
SSO
Country
Flag of USUS
Related business
Manufacturer
Unknown
Mission
Spacecraft
Bus & Motor
Unknown
Mass
Unknown
Launch date (UTC)
1974-11-15 (51 years ago)
Launch vehicle
Unknown
Launch site
Air Force Western Test Range (AFWTR)
Object type
Payload
Rocket body
Debris
Shape & HBR
Unknown shape, 0.1 m
Radar Cross Section
Small (<0.1 m²)

Expand to show TLE details & history
Last TLE update: 19 hours ago

TLE from 19 hours ago
0 THORAD DELTA 1 DEB
1 10990U 74089EK  25348.76412781 -.00000002  00000-0  21318-3 0  9996
2 10990 101.0460 348.0232 0074730  56.2644 116.8864 12.65089140357985
Epoch: 2025-12-14T18:20Z
TLE epoch observation values (Epoch: 2025-12-14T18:20:20.642Z)
Latitude
5.90313°
Longitude
170.41567°
Altitude
1,430.701 km
Speed
7.134 km/s
True Right ascension
11h 16m 41s
True Declination
5° 52' 16"
Sunlit
Object was in daylight at epoch
Visualization orbit readout
Latitude
Unknown
Longitude
Unknown
Altitude
Unknown
Speed
Unknown
Apparent Right ascension
Unknown
Apparent Declination
Unknown
Sunlit
N/A
Visualization observer readout
Local Sidereal Time
12:16:34
Azimuth
Unknown
Elevation
Unknown
Doppler factor
Unknown
Orbital elements
Apogee altitude
1,457.618 km
Perigee altitude
1,341.373 km
Semi-major axis
7,777.633 km
Eccentricity
0.00747
Inclination
101.046°
RAAN
348.0232°
Arg. of periapsis
56.2644°
True anomaly
117.64694°
Mean anomaly
116.8864°
Eccentric anomaly
117.26699°
Mean motion
3.16426 °/min
Orbital period
113.77 mins
BSTAR
0.00021318
Loading maneuver chart data...
Computing Atmospheric mass density...

Documentation

Showing up to 5 results
|